Weather History for Crestview, FL

Change the Weather History Date:

Saturday, January 18, 2014

  Actual Average Record
Temperature  
Mean Temperature 38 °F -  
Max Temperature 55 °F 58 °F 79 °F (1950)
Min Temperature 21 °F 34 °F 19 °F (2003)
Degree Days  
Heating Degree Days 27    
Moisture  
Dew Point 18 °F    
Average Humidity 55    
Maximum Humidity 88    
Minimum Humidity 15    
Precipitation  
Precipitation 0.00 in - - ()
Sea Level Pressure  
Sea Level Pressure 30.23 in    
Wind  
Wind Speed 2 mph (SW)    
Max Wind Speed 9 mph    
Max Gust Speed -    
Visibility 10 miles    
Events      
Averages and records for this station are not official NWS values.
T = Trace of Precipitation, MM = Missing Value Source: NWS Daily Summary

Daily Weather History Graph

Daily Weather History Graph

Search for Another Location

Airport:

Trip Planner

Search our weather history database for the weather conditions in past years. The results will help you decide how hot, cold, wet, or windy it might be!

Date:

Astronomy

Jan. 18, 2014 Rise Set
Actual Time 6:43 AM CST 5:09 PM CST
Civil Twilight 6:17 AM CST 5:35 PM CST
Nautical Twilight 5:48 AM CST 6:05 PM CST
Astronomical Twilight 5:19 AM CST 6:34 PM CST
Moon 7:37 PM CST (1/18) 7:55 AM CST (1/18)
Length of Visible Light 11h 17m
Length of Day
10h 25m
Waning Gibbous, 94% of the Moon is Illuminated
Jan 18
Waning Gibbous
Jan 23
Last Quarter
Jan 30
New
Feb 6
First Quarter
Feb 14
Full

Hourly Weather History & Observations

Time (CST) Temp. Windchill Dew Point Humidity Pressure Visibility Wind Dir Wind Speed Gust Speed Precip Events Conditions
12:53 AM 27.0 °F - 19.9 °F 75% 30.24 in 10.0 mi Calm Calm - N/A   Clear
1:53 AM 26.1 °F - 19.9 °F 78% 30.26 in 10.0 mi Calm Calm - N/A   Clear
2:53 AM 24.1 °F - 21.0 °F 88% 30.27 in 10.0 mi Calm Calm - N/A   Clear
3:53 AM 25.0 °F - 18.0 °F 75% 30.27 in 10.0 mi Calm Calm - N/A   Clear
4:53 AM 23.0 °F - 18.0 °F 81% 30.28 in 10.0 mi Calm Calm - N/A   Clear
5:53 AM 21.9 °F - 18.0 °F 85% 30.29 in 10.0 mi Calm Calm - N/A   Clear
6:53 AM 21.0 °F - 18.0 °F 88% 30.29 in 10.0 mi Calm Calm - N/A   Clear
7:53 AM 28.0 °F - 24.1 °F 85% 30.31 in 10.0 mi Calm Calm - N/A   Clear
8:53 AM 39.0 °F - 21.9 °F 50% 30.33 in 10.0 mi Calm Calm - N/A   Clear
9:53 AM 45.0 °F 42.6 °F 5.0 °F 19% 30.34 in 10.0 mi Variable 4.6 mph - N/A   Clear
10:53 AM 48.9 °F - 6.1 °F 18% 30.32 in 10.0 mi WNW 8.1 mph - N/A   Clear
11:53 AM 51.1 °F - 6.1 °F 16% 30.27 in 10.0 mi Variable 4.6 mph - N/A   Clear
12:53 PM 53.1 °F - 6.1 °F 15% 30.23 in 10.0 mi SW 6.9 mph - N/A   Clear
1:53 PM 55.0 °F - 8.1 °F 15% 30.20 in 10.0 mi SW 9.2 mph - N/A   Clear
2:53 PM 55.9 °F - 9.0 °F 15% 30.19 in 10.0 mi SSW 6.9 mph - N/A   Clear
3:53 PM 55.9 °F - 12.0 °F 18% 30.19 in 10.0 mi SW 6.9 mph - N/A   Clear
4:53 PM 50.0 °F - 21.0 °F 32% 30.18 in 10.0 mi South 9.2 mph - N/A   Clear
5:53 PM 45.0 °F 41.2 °F 23.0 °F 42% 30.19 in 10.0 mi SSW 6.9 mph - N/A   Clear
6:53 PM 41.0 °F 39.0 °F 24.1 °F 51% 30.18 in 10.0 mi South 3.5 mph - N/A   Clear
7:53 PM 37.0 °F 33.3 °F 27.0 °F 67% 30.17 in 10.0 mi SW 4.6 mph - N/A   Clear
8:53 PM 36.0 °F - 27.0 °F 70% 30.17 in 10.0 mi Calm Calm - N/A   Clear
9:53 PM 33.1 °F - 26.1 °F 75% 30.17 in 10.0 mi Calm Calm - N/A   Clear
10:53 PM 32.0 °F - 27.0 °F 82% 30.13 in 10.0 mi Calm Calm - N/A   Clear
11:53 PM 32.0 °F - 27.0 °F 82% 30.12 in 10.0 mi Calm Calm - N/A   Clear